Weather History for Winchester, VA

Change the Weather History Date:

Monday, December 5, 2011

  Actual Average Record
Temperature  
Mean Temperature 58 °F -  
Max Temperature 62 °F 48 °F 80 °F (2001)
Min Temperature 53 °F 32 °F 18 °F (1991)
Degree Days  
Heating Degree Days 8    
Growing Degree Days 8 (Base 50)    
Moisture  
Dew Point 51 °F    
Average Humidity 81    
Maximum Humidity 100    
Minimum Humidity 59    
Precipitation  
Precipitation 0.00 in - - ()
Sea Level Pressure  
Sea Level Pressure 30.18 in    
Wind  
Wind Speed 7 mph (SSE)    
Max Wind Speed 10 mph    
Max Gust Speed -    
Visibility 9 miles    
Events Rain    
Averages and records for this station are not official NWS values.
T = Trace of Precipitation, MM = Missing Value Source: NWS Daily Summary

Daily Weather History Graph

Daily Weather History Graph

Search for Another Location

Airport:

Trip Planner

Search our weather history database for the weather conditions in past years. The results will help you decide how hot, cold, wet, or windy it might be!

Date:

Astronomy

Dec. 05, 2011 Rise Set
Actual Time 7:16 AM EST 4:49 PM EST
Civil Twilight 6:46 AM EST 5:19 PM EST
Nautical Twilight 6:13 AM EST 5:52 PM EST
Astronomical Twilight 5:40 AM EST 6:25 PM EST
Moon 1:45 PM EST (12/5) 2:37 AM EST (12/5)
Length of Visible Light 10h 32m
Length of Day
9h 33m
Waxing Gibbous, 79% of the Moon is Illuminated
Dec 5
Waxing Gibbous
Dec 10
Full
Dec 17
Last Quarter
Dec 24
New
Jan 1
First Quarter

Hourly Weather History & Observations

Time (EST) Temp. Dew Point Humidity Pressure Visibility Wind Dir Wind Speed Gust Speed Precip Events Conditions
12:15 AM - - N/A% - - North - - N/A   Unknown
12:55 AM - - N/A% - - North - - N/A   Unknown
1:15 AM - - N/A% - - North - - N/A   Unknown
1:35 AM - - N/A% - - North - - N/A   Unknown
1:55 AM - - N/A% - - North - - N/A   Unknown
2:15 AM - - N/A% - - North - - N/A   Unknown
2:35 AM - - N/A% - - North - - N/A   Unknown
2:55 AM - - N/A% - - North - - N/A   Unknown
3:15 AM - - N/A% - - North - - N/A   Unknown
3:35 AM - - N/A% - - North - - N/A   Unknown
3:55 AM - - N/A% - - North - - N/A   Unknown
4:15 AM - - N/A% - - North - - N/A   Unknown
4:35 AM - - N/A% - - North - - N/A   Unknown
5:15 AM - - N/A% - - North - - N/A   Unknown
5:35 AM - - N/A% - - North - - N/A   Unknown
6:15 AM - - N/A% - - North - - N/A   Unknown
6:35 AM - - N/A% - - North - - N/A   Unknown
6:55 AM - - N/A% - - North - - N/A   Unknown
7:35 AM - - N/A% - - North - - N/A   Unknown
7:55 AM - - N/A% - - North - - N/A   Unknown
8:15 AM - - N/A% - - North - - N/A   Unknown
8:35 AM - - N/A% - - North - - N/A   Unknown
9:15 AM - - N/A% - - North - - N/A   Unknown
9:35 AM - - N/A% - - North - - N/A   Unknown
9:55 AM - - N/A% - - North - - N/A   Unknown
10:15 AM - - N/A% - - North - - N/A   Unknown
10:35 AM - - N/A% - - North - - N/A   Unknown
10:55 AM - - N/A% - - North - - N/A   Unknown
11:15 AM - - N/A% - - North - - N/A   Unknown
11:35 AM - - N/A% - - North - - N/A   Unknown
11:55 AM - - N/A% - - North - - N/A   Unknown
12:15 PM - - N/A% - - North - - N/A   Unknown
12:35 PM - - N/A% - - North - - N/A   Unknown
12:55 PM 60.8 °F 46.4 °F 59% 30.24 in 10.0 mi South 6.9 mph - N/A   Clear
1:15 PM 60.8 °F 46.4 °F 59% 30.23 in 10.0 mi South 8.1 mph - N/A   Mostly Cloudy
1:35 PM 60.8 °F 48.2 °F 63% 30.21 in 10.0 mi SE 10.4 mph - N/A   Mostly Cloudy
1:55 PM 62.6 °F 48.2 °F 59% 30.20 in 10.0 mi SSE 5.8 mph - N/A   Scattered Clouds
2:15 PM 62.6 °F 50.0 °F 63% 30.19 in 10.0 mi SSE 8.1 mph - N/A   Clear
2:35 PM 62.6 °F 50.0 °F 63% 30.19 in 10.0 mi SE 9.2 mph - N/A   Clear
2:55 PM 62.6 °F 50.0 °F 63% 30.18 in 10.0 mi SSE 9.2 mph - N/A   Clear
3:15 PM 60.8 °F 50.0 °F 68% 30.18 in 10.0 mi SSE 6.9 mph - N/A   Scattered Clouds
3:35 PM 60.8 °F 50.0 °F 68% 30.17 in 10.0 mi SSE 6.9 mph - N/A   Overcast
3:55 PM 59.0 °F 50.0 °F 72% 30.17 in 7.0 mi South 6.9 mph - N/A   Overcast
4:15 PM 59.0 °F 50.0 °F 72% 30.18 in 10.0 mi South 5.8 mph - N/A   Overcast
4:35 PM 57.2 °F 50.0 °F 77% 30.18 in 10.0 mi South 5.8 mph - N/A   Overcast
4:55 PM 57.2 °F 50.0 °F 77% 30.18 in 10.0 mi South 5.8 mph - N/A   Overcast
5:15 PM 55.4 °F 50.0 °F 82% 30.18 in 10.0 mi South 8.1 mph - N/A   Overcast
5:35 PM 55.4 °F 50.0 °F 82% 30.19 in 10.0 mi South 5.8 mph - N/A   Overcast
5:55 PM 55.4 °F 50.0 °F 82% 30.19 in 10.0 mi SSE 4.6 mph - N/A   Overcast
6:15 PM 55.4 °F 50.0 °F 82% 30.19 in 10.0 mi SE 5.8 mph - N/A   Overcast
6:35 PM 55.4 °F 50.0 °F 82% 30.19 in 10.0 mi SE 5.8 mph - N/A   Overcast
6:55 PM 55.4 °F 50.0 °F 82% 30.19 in 10.0 mi SE 6.9 mph - N/A   Overcast
7:15 PM 55.4 °F 50.0 °F 82% 30.19 in 10.0 mi SE 8.1 mph - N/A   Overcast
7:35 PM 55.4 °F 50.0 °F 82% 30.19 in 10.0 mi SSE 6.9 mph - N/A   Overcast
7:55 PM 55.4 °F 50.0 °F 82% 30.19 in 10.0 mi SE 5.8 mph - N/A   Overcast
8:15 PM 55.4 °F 51.8 °F 88% 30.19 in 7.0 mi SSE 6.9 mph - N/A Rain Rain
8:35 PM 55.4 °F 51.8 °F 88% 30.19 in 5.0 mi SSE 8.1 mph - N/A   Drizzle
8:55 PM 53.6 °F 51.8 °F 94% 30.17 in 10.0 mi SE 6.9 mph - N/A   Overcast
9:15 PM 53.6 °F 51.8 °F 94% 30.17 in 7.0 mi South 4.6 mph - N/A   Overcast
9:35 PM 53.6 °F 51.8 °F 94% 30.17 in 7.0 mi South 4.6 mph - N/A Rain Light Rain
9:55 PM 53.6 °F 53.6 °F 100% 30.16 in 10.0 mi South 4.6 mph - N/A   Overcast
10:15 PM 53.6 °F 53.6 °F 100% 30.14 in 4.0 mi SSE 6.9 mph - N/A   Drizzle
10:35 PM 53.6 °F 53.6 °F 100% 30.14 in 10.0 mi SSE 6.9 mph - N/A   Overcast
10:55 PM 53.6 °F 53.6 °F 100% 30.14 in 10.0 mi South 5.8 mph - N/A   Overcast
11:15 PM 53.6 °F 51.8 °F 94% 30.13 in 10.0 mi South 3.5 mph - N/A   Overcast
11:35 PM 53.6 °F 53.6 °F 100% 30.13 in 10.0 mi South 3.5 mph - N/A   Overcast
11:55 PM 53.6 °F 53.6 °F 100% 30.12 in 10.0 mi South 4.6 mph - N/A   Overcast